Location: Gajan
(43.0218°N, 1.1244°E)
Time: 16:31:55
(UTC+00:00)

IRIDIUM 114 - Pass Details

Date: 22 April 2021
Orbit: 776 x 779 km, 86.4° (Epoch: 12 May)

Event Time Altitude Azimuth Distance (km) Brightness Sun altitude
Exits shadow 20:12:32 - 178° (S) 2,754 6.8 -15.0°
Reaches altitude 10° 20:13:37 10° 178° (S) 2,323 6.5 -15.1°
Maximum altitude 20:18:50 83° 92° (E) 790 4.3 -15.9°
Drops below altitude 10° 20:24:04 10° 5° (N) 2,339 7.2 -16.7°
Sets 20:26:26 0° 4° (N) 3,270 8.0 -17.0°
